Weather History for KPNS - September, 2014

Change the Weather History Date:

Monday, September 8, 2014

  Actual Average Record
Temperature  
Mean Temperature 79 °F 80 °F  
Max Temperature 85 °F 88 °F 97 °F (1980)
Min Temperature 72 °F 72 °F 61 °F (1950)
Cooling Degree Days 14 15  
Month to date cooling degree days 132 125  
Year to date cooling degree days 2088 2092  
Growing Degree Days 28 (Base 50)    
Moisture  
Dew Point 74 °F    
Average Humidity 87    
Maximum Humidity 100    
Minimum Humidity 74    
Precipitation  
Precipitation 1.04 in 0.19 in 5.80 in (1947)
Month to date precipitation 2.52 1.60  
Year to date precipitation 71.27 46.37  
Sea Level Pressure  
Sea Level Pressure 30.00 in    
Wind  
Wind Speed 5 mph (SE)    
Max Wind Speed 22 mph    
Max Gust Speed 30 mph    
Visibility 9 miles    
Events Fog , Rain , Thunderstorm    
T = Trace of Precipitation, MM = Missing Value Source: NWS Daily Summary

Daily Weather History Graph

Daily Weather History Graph

Search for Another Location

Airport or City:

Trip Planner

Search our weather history database for the weather conditions in past years. The results will help you decide how hot, cold, wet, or windy it might be!

Date:

Astronomy

Sep. 08, 2014 Rise Set
Actual Time 6:29 AM CDT 7:02 PM CDT
Civil Twilight 6:05 AM CDT 7:27 PM CDT
Nautical Twilight 5:36 AM CDT 7:55 PM CDT
Astronomical Twilight 5:07 AM CDT 8:24 PM CDT
Moon 6:45 PM CDT (9/8) 5:53 AM CDT (9/8)
Length of Visible Light 13h 22m
Length of Day
12h 33m
Full, 100% of the Moon is Illuminated
Sep 8
Full
Sep 8
Full
Sep 15
Last Quarter
Sep 24
New
Oct 1
First Quarter

Hourly Weather History & Observations

Time (CDT) Temp. Heat Index Dew Point Humidity Pressure Visibility Wind Dir Wind Speed Gust Speed Precip Events Conditions
12:53 AM 73.0 °F - 72.0 °F 96% 29.96 in 10.0 mi North 3.5 mph - N/A   Partly Cloudy
1:53 AM 73.0 °F - 73.0 °F 100% 29.95 in 10.0 mi ENE 4.6 mph - N/A   Clear
2:53 AM 73.0 °F - 73.0 °F 100% 29.96 in 10.0 mi SE 3.5 mph - N/A   Clear
3:53 AM 75.2 °F - 75.2 °F 100% 29.94 in 10.0 mi Calm Calm - N/A   Clear
4:53 AM 73.9 °F - 73.9 °F 100% 29.95 in 10.0 mi NNW 5.8 mph - N/A   Clear
5:53 AM 73.0 °F - 73.0 °F 100% 29.96 in 10.0 mi North 6.9 mph - N/A   Clear
6:53 AM 71.6 °F - 71.6 °F 100% 29.98 in 10.0 mi NNW 6.9 mph - N/A   Partly Cloudy
7:53 AM 75.0 °F - 73.9 °F 96% 30.00 in 10.0 mi North 4.6 mph - N/A   Clear
8:53 AM 78.1 °F - 75.0 °F 90% 30.01 in 10.0 mi North 5.8 mph - N/A   Clear
9:53 AM 81.0 °F 87.3 °F 75.9 °F 85% 30.02 in 10.0 mi Calm Calm - N/A   Clear
10:51 AM 84.2 °F 90.9 °F 73.4 °F 70% 30.01 in 10.0 mi WSW 3.5 mph - N/A Thunderstorm Scattered Clouds
10:53 AM 84.9 °F 93.3 °F 75.0 °F 72% 30.02 in 10.0 mi Variable 5.8 mph - N/A Thunderstorm Mostly Cloudy
11:23 AM 84.0 °F 91.2 °F 73.9 °F 72% 30.01 in 10.0 mi WSW 3.5 mph - N/A Thunderstorm Mostly Cloudy
11:33 AM 82.0 °F 89.4 °F 75.9 °F 82% 30.01 in 10.0 mi East 6.9 mph - N/A Thunderstorm Thunderstorm
11:53 AM 78.1 °F - 73.9 °F 87% 30.02 in 10.0 mi South 18.4 mph - 0.00 in Rain , Thunderstorm Light Thunderstorms and Rain
12:05 PM 73.9 °F - 72.0 °F 93% 30.03 in 0.5 mi South 19.6 mph - 0.22 in Fog , Rain , Thunderstorm Heavy Thunderstorms and Rain
12:12 PM 73.0 °F - 72.0 °F 96% 30.03 in 2.0 mi SE 13.8 mph - 0.49 in Rain , Thunderstorm Heavy Thunderstorms and Rain
12:16 PM 73.0 °F - 72.0 °F 96% 30.02 in 1.8 mi ENE 21.9 mph 27.6 mph 0.53 in Rain , Thunderstorm Heavy Thunderstorms and Rain
12:26 PM 77.0 °F - 68.0 °F 74% 30.01 in 2.0 mi SE 13.8 mph 29.9 mph N/A Rain , Thunderstorm Heavy Thunderstorms and Rain
12:32 PM 75.0 °F - 71.1 °F 87% 30.01 in 9.0 mi East 10.4 mph - 1.04 in Rain , Thunderstorm Light Thunderstorms and Rain
12:44 PM 75.0 °F - 72.0 °F 90% 30.01 in 10.0 mi SSE 5.8 mph - 1.04 in Thunderstorm Mostly Cloudy
12:53 PM 75.0 °F - 73.0 °F 94% 30.01 in 10.0 mi ESE 4.6 mph - 1.04 in Thunderstorm Scattered Clouds
1:13 PM 75.0 °F - 73.0 °F 94% 30.01 in 10.0 mi Calm Calm - N/A Thunderstorm Thunderstorm
1:28 PM 75.0 °F - 73.0 °F 94% 30.00 in 10.0 mi East 6.9 mph - N/A Thunderstorm Clear
1:53 PM 75.9 °F - 73.9 °F 94% 30.01 in 10.0 mi SE 4.6 mph - 0.00 in Rain , Thunderstorm Light Rain
2:23 PM 78.1 °F - 75.0 °F 90% 29.99 in 10.0 mi SE 5.8 mph - 0.00 in   Scattered Clouds
2:53 PM 78.1 °F - 75.0 °F 90% 29.98 in 10.0 mi South 4.6 mph - 0.00 in   Scattered Clouds
3:53 PM 81.0 °F 86.2 °F 73.9 °F 79% 29.97 in 10.0 mi SE 5.8 mph - 0.00 in   Clear
4:53 PM 82.9 °F 90.2 °F 75.0 °F 77% 29.97 in 10.0 mi SE 9.2 mph - N/A   Clear
5:53 PM 81.0 °F 86.7 °F 75.0 °F 82% 29.97 in 10.0 mi ESE 6.9 mph - N/A   Clear
6:53 PM 80.1 °F 85.1 °F 75.0 °F 85% 29.96 in 10.0 mi SSE 3.5 mph - N/A   Clear
7:53 PM 78.1 °F - 75.0 °F 90% 29.97 in 10.0 mi South 3.5 mph - N/A   Partly Cloudy
8:53 PM 75.9 °F - 75.0 °F 97% 29.99 in 10.0 mi Calm Calm - N/A   Partly Cloudy
9:28 PM 78.1 °F - 75.9 °F 93% 30.00 in 10.0 mi Calm Calm - N/A   Mostly Cloudy
9:53 PM 78.1 °F - 77.0 °F 96% 30.01 in 10.0 mi ENE 4.6 mph - N/A   Overcast
10:13 PM 78.1 °F - 75.9 °F 93% 30.02 in 10.0 mi East 6.9 mph - 0.00 in Rain , Thunderstorm Light Rain
10:36 PM 78.1 °F - 77.0 °F 96% 30.02 in 10.0 mi East 5.8 mph - 0.00 in   Mostly Cloudy
10:39 PM 78.1 °F - 77.0 °F 96% 30.02 in 10.0 mi East 5.8 mph - 0.00 in Thunderstorm Thunderstorm
10:53 PM 77.0 °F - 75.9 °F 96% 30.03 in 10.0 mi ESE 5.8 mph - 0.00 in Thunderstorm Thunderstorm
11:08 PM 77.0 °F - 75.0 °F 94% 30.03 in 10.0 mi SSW 6.9 mph - N/A Thunderstorm Scattered Clouds
11:25 PM 75.9 °F - 73.9 °F 94% 30.02 in 10.0 mi SSW 4.6 mph - N/A Thunderstorm Mostly Cloudy
11:32 PM 75.9 °F - 73.9 °F 94% 30.02 in 10.0 mi SSW 5.8 mph - N/A Thunderstorm Thunderstorm
11:53 PM 75.9 °F - 73.0 °F 91% 30.02 in 10.0 mi SSW 8.1 mph - N/A Thunderstorm Thunderstorm